Погода в Старом Мелкове

Россия / Тверская область     56°39′17″N   36°26′24″E
темп.,
°C
ветер,
м/с
пор.,
м/с
влажн.,
%
обл.,
%
осадки,
мм/ч
давл.,
гПа
погр.,
м
8 мая, сб
сб800:00+5ююв3884100 0.0 1010160
03:00+6ююв41382100 0.0 1009347
06:00+6юв41193100 0.9 10081086
09:00+8ююв51292100 1.4 1007841
12:00+8юв41195100 1.6 1006949
15:00+8вюв2698100 5.5 1004430
18:00+7с2398100 4.0 100286
21:00+7сз61195100 5.1 1002655
9 мая, вс
вс900:00+5сз61293100 0.5 10031117
03:00+3сз61392100 2.9 1006767
06:00+3сз61291100 0.2 1009979
09:00+4сз51084100 0.3 10121157
12:00+10сз694886 0.1 10132009
15:00+12сз6939100 0.1 10162490
18:00+11сз484699 0.0 10182255
21:00+5зсз310690 0.0 1022177
10 мая, пн
пн1000:00+3зсз25760 0.0 102481
03:00+2сз11755 0.0 102610
06:00+3юз22735 0.0 102857
09:00+10юз345142 0.0 1029473
12:00+14юз45415 0.0 10281704
15:00+15зюз344166 0.0 10281683
18:00+15юз235413 0.0 10281011
21:00+9ю22735 0.0 103020
11 мая, вт
вт1100:00+7ююз22805 0.0 103012
03:00+7ю11855 0.0 103110
06:00+7ю23805 0.0 103280
09:00+14ююв23545 0.0 1032510
12:00+17юв344444 0.0 10311230
15:00+19вюв34435 0.0 10291373
18:00+18вюв345465 0.0 1029892
21:00+11вюв377782 0.0 1029135
12 мая, ср
ср1200:00+9вюв23825 0.0 102949
03:00+7в24830 0.0 102971
06:00+8в26810 0.0 1029163
09:00+15в4755100 0.0 1027539
12:00+20в57491 0.0 10261052
15:00+22вюв585080 0.0 10251587
18:00+20вюв376225 0.0 10241064
21:00+15всв398894 0.0 1024190